This is the latest recevied weather packets stored in our database for station/object OZ1IEP-5. If no packets are shown the sender has not sent any weather packets the latest 10 day(s).
| Time | Temp. | Humidity | Pressure | Rain* | Wind** | Luminosity | Snow |
|---|---|---|---|---|---|---|---|
| 1787934006 | 18.89° C | 83% | 1004.1 hPa | 0 mm | - | 35 W/m² | - |
| 1787933405 | 18.89° C | 83% | 1004.6 hPa | 0 mm | - | 35 W/m² | - |
| 1787932809 | 18.89° C | 83% | 1004 hPa | 0 mm | - | 28 W/m² | - |
| 1787932206 | 18.89° C | 83% | 1004.2 hPa | 0 mm | - | 54 W/m² | - |
| 1787931606 | 18.89° C | 83% | 1004.6 hPa | 0 mm | - | 33 W/m² | - |
| 1787931008 | 18.89° C | 83% | 1004.4 hPa | 0 mm | - | 105 W/m² | - |
| 1787930406 | 18.89° C | 84% | 1004.6 hPa | 0 mm | - | 116 W/m² | - |
| 1787929806 | 18.89° C | 84% | 1004.8 hPa | 0 mm | - | 113 W/m² | - |
| 1787929209 | 18.89° C | 85% | 1005.1 hPa | 0 mm | - | 125 W/m² | - |
| 1787928606 | 18.33° C | 85% | 1005.1 hPa | 0 mm | - | 176 W/m² | - |
| 1787928006 | 18.33° C | 86% | 1005.1 hPa | 0 mm | - | 146 W/m² | - |
| 1787927408 | 18.33° C | 87% | 1005.1 hPa | 0 mm | - | 97 W/m² | - |
| 1787926805 | 18.33° C | 88% | 1005.4 hPa | 0 mm | - | 151 W/m² | - |
| 1787926206 | 17.78° C | 89% | 1006 hPa | 0.25 mm | - | 262 W/m² | - |
| 1787925608 | 17.22° C | 89% | 1006.4 hPa | 0.25 mm | - | 49 W/m² | - |
| 1787925005 | 17.22° C | 89% | 1006.3 hPa | 0.25 mm | - | 65 W/m² | - |
| 1787924406 | 17.22° C | 89% | 1006.5 hPa | 0.25 mm | - | 37 W/m² | - |
| 1787923808 | 17.22° C | 89% | 1006.2 hPa | 0.25 mm | - | 70 W/m² | - |
| 1787923206 | 17.22° C | 89% | 1005.8 hPa | 0.25 mm | - | 91 W/m² | - |
| 1787922606 | 17.22° C | 88% | 1005.9 hPa | 0 mm | - | 107 W/m² | - |
| 1787922008 | 16.67° C | 88% | 1005.8 hPa | 0.25 mm | - | 81 W/m² | - |
| 1787921406 | 16.67° C | 88% | 1005.9 hPa | 0.51 mm | - | 49 W/m² | - |
| 1787920806 | 16.67° C | 88% | 1006.1 hPa | 0.51 mm | - | 33 W/m² | - |
| 1787920208 | 16.67° C | 88% | 1006.2 hPa | 0.51 mm | - | 28 W/m² | - |
| 1787919606 | 16.67° C | 88% | 1006.6 hPa | 0.51 mm | - | 47 W/m² | - |
* Rain latest hour (hover to see other rain measurements)
** Current wind speed in m/s (hover to see current wind gust speed)